User: anonymous   Login
Location: Unspecified
(0.0000°N, 0.0000°E)
Time: 07:43:10
(UTC+00:00)
Language:

USA-170 - Orbit

View from above orbital plane
View from above orbital plane
View from above satellite
View from above satellite

Ground track
Ground track

The orbit data is extracted from the following two-line orbital elements,

1 27875U 03040A   18196.49236183 0.00000000  00000-0  00000-0 0    00
2 27875   4.5092  68.0597 0003695 356.9613   3.0366  1.00270000    00
Epoch (UTC): 15 July 2018 11:49:00
Eccentricity: 0.0003695
inclination: 4.5092°
perigee height: 35771 km
apogee height: 35802 km
right ascension of ascending node: 68.0597°
argument of perigee: 356.9613°
revolutions per day: 1.00270000
mean anomaly at epoch: 3.0366°
orbit number at epoch: 0

The dashed part of the orbit path shows where the satellite is in the earth's shadow,  

DLR